Regional Weather Roundup
Issued by NWS

Home | Current Version | Previous Version | Graphics & Text | Print | Product List | Glossary On
Versions: 1 2 3 4 5 6 7 8 9 10 11 12 13 14 15 16 17 18 19 20 21 22 23 24 25 26 27 28 29 30 31 32 33 34 35 36 37 38 39 40 41 42 43 44 45 46 47 48 49 50
209
ASUS43 KLMK 212010
RWRKY
KENTUCKY REGIONAL WEATHER ROUNDUP
NATIONAL WEATHER SERVICE LOUISVILLE KY
400 PM EDT THU SEP 21 2017

NOTE "FAIR" INDICATES FEW OR NO CLOUDS BELOW 12,000 FEET
WITH NO SIGNIFICANT WEATHER AND/OR OBSTRUCTIONS TO VISIBILITY.

KYZ001>023-026-027-061>063-070>075-212100-
WESTERN AND SOUTH CENTRAL KENTUCKY

CITY           SKY/WX    TMP DP  RH WIND       PRES   REMARKS
PADUCAH        SUNNY     92  67  43 VRB5      30.01F HX  95
HENDERSON      SUNNY     90  70  51 VRB3      30.02F HX  95
OWENSBORO      SUNNY     93  69  45 NE5       30.03F HX  98
HOPKINSVILLE   MOSUNNY   89  71  55 W5        30.02F HX  95
BOWLING GREEN  MOSUNNY   90  69  50 VRB7      30.04F HX  94
GLASGOW        SUNNY     90  67  46 NE6       30.05F HX  92
$$

KYZ024-025-028>034-038-045-046-053-212100-
NORTH CENTRAL KENTUCKY

CITY           SKY/WX    TMP DP  RH WIND       PRES   REMARKS
LOUISVILLE/SDF MOSUNNY   90  68  48 SE7       30.03F HX  94
LOUISVILLE/LOU SUNNY     91  71  51 E3        30.04F HX  97
FORT KNOX      SUNNY     87  68  52 CALM      30.04F HX  91
$$

KYZ035>037-039>044-047>052-055>060-089>105-212100-
NORTHEAST KENTUCKY

CITY           SKY/WX    TMP DP  RH WIND       PRES   REMARKS
LEXINGTON      MOSUNNY   88  68  51 E5        30.08F HX  91
COVINGTON      MOSUNNY   88  72  58 W5        30.06F HX  94
FRANKFORT      MOSUNNY   88  67  49 CALM      30.06F HX  91
$$

KYZ054-064>069-076>088-106>120-212100-
SOUTHEAST KENTUCKY

CITY           SKY/WX    TMP DP  RH WIND       PRES   REMARKS
JACKSON        CLOUDY    78  67  68 CALM      30.11S
LONDON         SUNNY     85  62  46 VRB6      30.08F
SOMERSET       SUNNY     84  64  51 E5        30.08F
MIDDLESBORO    CLOUDY    83  64  53 NE3       30.08F
MONTICELLO     PTCLDY    82  66  58 N14       30.09F
$$





USA.gov is the U.S. government's official web portal to all federal, state and local government web resources and services.